Location: Unspecified
(49.2170°N, 0.0000°E)
Time: 04:52:05
(UTC+00:00)

Transit 4A - Pass Details

Date: 19 June 2019
Orbit: 863 x 981 km, 66.8° (Epoch: 17 August)

Event Time Altitude Azimuth Distance (km) Brightness Sun altitude
Rises 12:07:44 0° 282° (WNW) 3,665 11.0 64.2°
Reaches altitude 10° 12:11:11 10° 300° (WNW) 2,732 10.4 64.1°
Maximum altitude 12:15:33 19° 344° (NNW) 2,173 9.8 64.1°
Drops below altitude 10° 12:19:56 10° 27° (NNE) 2,744 10.2 63.9°
Sets 12:23:25 0° 45° (NE) 3,689 10.8 63.8°
